Location: Finkenwalde
(53.3770°N, 14.6418°E)
Time: 10:26:07
(UTC+00:00)

Cosmos 1943 Rocket - Visible Passes

Search period start: 28 September 2023 00:00
Search period end: 08 October 2023 00:00
Orbit: 810 x 845 km, 71.0° (Epoch: 27 September)

Date Brightness Start Highest point End Pass type
(mag) Time Alt. Az. Time Alt. Az. Time Alt. Az.
28 Sep 3.1 17:35:34 10° NNW 17:40:38 32° NE 17:45:11 12° E visible
28 Sep 2.3 19:19:13 10° NW 19:24:53 71° WSW 19:26:42 44° S visible
28 Sep 4.5 21:04:42 10° WNW 21:07:38 14° W 21:08:14 14° WSW visible
29 Sep 3.2 17:16:14 10° NNW 17:21:11 30° NE 17:26:07 10° E visible
29 Sep 2.2 18:59:51 10° NNW 19:05:33 79° WSW 19:08:01 35° SSE visible
29 Sep 4.4 20:45:01 10° WNW 20:48:23 16° W 20:49:32 15° WSW visible
30 Sep 2.2 18:40:29 10° NNW 18:46:13 86° WSW 18:49:24 27° SSE visible
30 Sep 4.3 20:25:24 10° WNW 20:29:09 18° W 20:30:56 16° WSW visible
01 Oct 2.1 18:21:08 10° NNW 18:26:51 86° ENE 18:30:51 20° SSE visible
01 Oct 4.3 20:05:51 10° NW 20:09:55 20° W 20:12:23 16° SW visible
02 Oct 2.1 18:01:46 10° NNW 18:07:30 79° ENE 18:12:23 14° SE visible
02 Oct 4.2 19:46:20 10° NW 19:50:39 23° WSW 19:53:55 14° SW visible
03 Oct 2.2 17:42:26 10° NNW 17:48:08 72° NE 17:53:46 10° SE visible
03 Oct 4.1 19:26:49 10° NW 19:31:23 25° WSW 19:35:34 11° SSW visible
04 Oct 2.2 17:23:04 10° NNW 17:28:45 65° NE 17:34:21 10° SE visible
04 Oct 3.9 19:07:21 10° NW 19:12:07 28° WSW 19:16:50 10° SSW visible
05 Oct 2.3 17:03:44 10° NNW 17:09:22 60° NE 17:14:56 10° SE visible
05 Oct 3.8 18:47:54 10° NW 18:52:50 31° WSW 18:57:43 10° SSW visible
06 Oct 3.7 18:28:28 10° NW 18:33:33 35° WSW 18:38:35 10° S visible
07 Oct 3.5 18:09:02 10° NW 18:14:15 39° WSW 18:19:25 10° S visible
